Simultaneous Nadir Overpasses (SNOs) Predictions

Prediction of SNOs between LANDSAT-8 and METOP-A Satellite Orbit:

Table of predicted SNOs for the next 14.0 days since TLE Epoch: 6/8/2019
Index Date (LANDSAT-8) Time (LANDSAT-8) Lat,Lon (LANDSAT-8) SZA (LANDSAT-8 ) Date (METOP-A) Time (METOP-A) Lat,Lon (METOP-A) SZA (METOP-A ) Distance(km) Time Diff (sec)
1 06/08/2019 09:03:36 -81.48, -89.34 118.54 06/08/2019 09:02:56 -81.47, -89.51 118.58 2.84 40
2 06/08/2019 09:53:03 81.46, 78.01 61.42 06/08/2019 09:53:36 81.47, 78.21 61.46 3.33 33
3 06/11/2019 04:37:53 -81.47, -23.11 118.81 06/11/2019 04:37:20 -81.47, -23.10 118.82 0.38 33
4 06/11/2019 05:27:19 81.47, 144.61 61.20 06/11/2019 05:28:00 81.47, 144.60 61.22 0.14 41
5 06/14/2019 00:12:09 -81.47, 43.49 118.98 06/14/2019 00:11:44 -81.47, 43.30 119.01 3.18 25
6 06/14/2019 01:01:35 81.48,-148.82 61.03 06/14/2019 01:02:24 81.47,-149.02 61.03 3.39 49
7 06/16/2019 19:46:25 -81.46, 109.66 119.15 06/16/2019 19:46:07 -81.47, 109.68 119.15 0.90 18
8 06/16/2019 20:35:51 81.46, -82.66 60.86 06/16/2019 20:36:47 81.47, -82.65 60.89 0.72 56
9 06/19/2019 15:20:41 -81.47, 176.20 119.22 06/19/2019 15:20:31 -81.47, 176.04 119.24 2.58 10




NCC Satellite Simultaneous Nadir Overpasses (SNOs) Prediction Service
